User: anonymous   Login
Location: ??
(34.9170°N, 135.5016°E)
Time: 15:34:17
(UTC+00:00)
Language:

A-11 Canister half - Orbit

View from above orbital plane
View from above orbital plane
View from above satellite
View from above satellite

Ground track
Ground track

The orbit data is extracted from the following two-line orbital elements,

1 00053U 60009E   21057.76202906 -.00000020  00000-0  64636-3 0  9991
2 00053  47.2743 194.7389 0100019 113.2628 247.8727 12.17254485699541
Epoch (UTC): 26 February 2021 18:17:19
Eccentricity: 0.0100019
inclination: 47.2743°
perigee height: 1524 km
apogee height: 1684 km
right ascension of ascending node: 194.7389°
argument of perigee: 113.2628°
revolutions per day: 12.17254485
mean anomaly at epoch: 247.8727°
orbit number at epoch: 69954

The dashed part of the orbit path shows where the satellite is in the earth's shadow,  

DLR